Glens Falls, NY

3:40 PM EST on December 05, 2019 (GMT -0500)
Bennett Memorial

Weather History for KGFL - October, 2019

Change the Weather History Date:

Saturday, October 5, 2019

  Actual Average Record
Temperature  
Mean Temperature 43 °F 50 °F  
Max Temperature 57 °F 63 °F 87 °F (1951)
Min Temperature 28 °F 39 °F 24 °F (1996)
Degree Days  
Heating Degree Days 22 15  
Month to date heating degree days 70 69  
Since 1 July heating degree days 292 354  
Cooling Degree Days 0 0  
Month to date cooling degree days 0 0  
Year to date cooling degree days 416 351  
Moisture  
Dew Point 32 °F    
Average Humidity 68    
Maximum Humidity 100    
Minimum Humidity 35    
Precipitation  
Precipitation 0.00 in 0.12 in 1.50 in (1932)
Month to date precipitation 0.39 0.59  
Year to date precipitation 31.24 29.78  
Sea Level Pressure  
Sea Level Pressure 30.43 in    
Wind  
Wind Speed 1 mph (NNW)    
Max Wind Speed 10 mph    
Max Gust Speed 14 mph    
Visibility 7 miles    
Events Fog    
T = Trace of Precipitation, MM = Missing Value Source: NWS Daily Summary

Daily Weather History Graph

Daily Weather History Graph

Search for Another Location

Airport or City:

Astronomy

Oct. 05, 2019 Rise Set
Actual Time 6:56 AM EDT 6:28 PM EDT
Civil Twilight 6:27 AM EDT 6:57 PM EDT
Nautical Twilight 5:54 AM EDT 7:30 PM EDT
Astronomical Twilight 5:21 AM EDT 8:03 PM EDT
Moon 2:29 PM EDT 11:40 PM EDT
Length of Visible Light 12h 29m
Length of Day
11h 32m
Waxing Crescent, 50% of the Moon is Illuminated
Oct 5
Waxing Crescent
Oct 5
First Quarter
Oct 13
Full
Oct 21
Last Quarter
Oct 27
New

Hourly Weather History & Observations

Time (EDT) Temp. Windchill Dew Point Humidity Pressure Visibility Wind Dir Wind Speed Gust Speed Precip Events Conditions
12:53 AM 35.1 °F 32.2 °F 34.0 °F 96% 30.42 in 10.0 mi NNW 3.5 mph - N/A   Clear
1:53 AM 32.0 °F 28.7 °F 30.9 °F 96% 30.44 in 10.0 mi WNW 3.5 mph - N/A   Clear
2:53 AM 30.9 °F - 30.9 °F 100% 30.45 in 2.5 mi Calm Calm - N/A   Clear
3:03 AM 30.9 °F 27.5 °F 28.9 °F 92% 30.43 in 10.0 mi WNW 3.5 mph - N/A   Clear
3:53 AM 30.9 °F - 28.0 °F 89% 30.45 in 10.0 mi Calm Calm - N/A   Clear
4:38 AM 30.0 °F - 28.0 °F 92% 30.45 in 2.5 mi Calm Calm - N/A   Clear
4:45 AM 30.0 °F - 28.0 °F 92% 30.45 in 9.0 mi Calm Calm - N/A   Clear
4:53 AM 30.0 °F - 27.0 °F 88% 30.47 in 10.0 mi Calm Calm - N/A   Clear
5:53 AM 30.0 °F - 28.9 °F 96% 30.48 in 10.0 mi Calm Calm - N/A   Clear
6:53 AM 28.0 °F 21.7 °F 27.0 °F 96% 30.50 in 10.0 mi South 5.8 mph - N/A   Clear
7:16 AM 30.0 °F - 28.0 °F 92% 30.48 in 1.8 mi Calm Calm - N/A   Partly Cloudy
7:19 AM 28.9 °F - 28.0 °F 96% 30.48 in 0.8 mi Calm Calm - N/A   Mist
7:28 AM 28.9 °F - 27.0 °F 92% 30.49 in 0.2 mi Calm Calm - N/A Fog Light Freezing Fog
7:46 AM 30.0 °F - 30.0 °F 100% 30.49 in 1.0 mi Calm Calm - N/A   Mist
7:50 AM 30.2 °F - 30.2 °F 100% 30.49 in 2.0 mi Calm Calm - N/A   Partly Cloudy
7:53 AM 30.9 °F - 30.0 °F 96% 30.51 in 4.0 mi Calm Calm - N/A   Clear
8:53 AM 37.9 °F - 35.1 °F 89% 30.51 in 10.0 mi Calm Calm - N/A   Clear
9:53 AM 45.0 °F 43.5 °F 34.0 °F 65% 30.51 in 10.0 mi NNE 3.5 mph - N/A   Clear
10:53 AM 46.9 °F - 35.1 °F 63% 30.51 in 10.0 mi East 4.6 mph - N/A   Clear
11:53 AM 48.9 °F - 35.1 °F 59% 30.49 in 10.0 mi Calm Calm - N/A   Clear
12:53 PM 51.1 °F - 35.1 °F 54% 30.48 in 10.0 mi Variable 3.5 mph - N/A   Clear
1:53 PM 54.0 °F - 35.1 °F 49% 30.44 in 10.0 mi West 3.5 mph - N/A   Clear
2:53 PM 55.0 °F - 35.1 °F 47% 30.43 in 10.0 mi ENE 5.8 mph - N/A   Clear
3:53 PM 55.0 °F - 32.0 °F 42% 30.40 in 10.0 mi Calm Calm - N/A   Clear
4:53 PM 55.0 °F - 28.0 °F 35% 30.38 in 10.0 mi Calm Calm - N/A   Clear
5:53 PM 53.1 °F - 32.0 °F 45% 30.38 in 10.0 mi Calm Calm - N/A   Clear
6:53 PM 43.0 °F - 37.0 °F 80% 30.38 in 10.0 mi Calm Calm - N/A   Clear
7:53 PM 37.9 °F - 35.1 °F 89% 30.37 in 10.0 mi Calm Calm - N/A   Clear
8:53 PM 36.0 °F - 34.0 °F 93% 30.38 in 10.0 mi Calm Calm - N/A   Clear
9:53 PM 36.0 °F - 34.0 °F 93% 30.37 in 8.0 mi Calm Calm - N/A   Clear
10:22 PM 34.0 °F - 33.1 °F 96% 30.35 in 1.8 mi Calm Calm - N/A   Clear
10:30 PM 34.0 °F - 33.1 °F 96% 30.35 in 3.0 mi Calm Calm - N/A   Clear
10:53 PM 33.1 °F - 33.1 °F 100% 30.36 in 1.8 mi Calm Calm - N/A   Clear
11:09 PM 32.0 °F - 30.9 °F 96% 30.34 in 3.0 mi Calm Calm - N/A   Clear
11:53 PM 33.1 °F - 32.0 °F 96% 30.35 in 4.0 mi Calm Calm - N/A   Clear
11:57 PM 32.0 °F - 30.9 °F 96% 30.33 in 1.8 mi Calm Calm - N/A   Clear